Tracking 20092 objects as of 14-Dec-2019
HD Live streaming from Space Station
objects crossing your sky now

COSMOS 2251 DEB

Track COSMOS 2251 DEB now!
10-day predictions


NORAD ID: 35890
Int'l Code: 1993-036AUD
Perigee: 725.4 km
Apogee: 845.3 km
Inclination: 73.9 °
Period: 100.4 minutes
Semi major axis: 7156 km
RCS: 0.0103 m2 (small)
Launch date: June 16, 1993
Source: Commonwealth of Independent States (former USSR) (CIS)
Launch site: PLESETSK MISSILE AND SPACE COMPLEX (PKMTR)

Note: This is SATELLITE DEBRIS
aabbcc
Your satellite tracking list
Your tracking list is empty




NASA's NSSDC Master Catalog

Two Line Element Set (TLE):
1 35890U 93036AUD 19347.30729000  .00000427  00000-0  15648-3 0  9991
2 35890  73.9452 358.0988 0083827 247.2659 111.9617 14.34051936537592
Source of the keplerian elements: AFSPC